Time,TemperatureF,DewpointF,PressureIn,WindDirection,WindDirectionDegrees,WindSpeedMPH,WindSpeedGustMPH,Humidity,HourlyPrecipIn,Conditions,Clouds,dailyrainin,SoftwareType,DateUTC
2013-06-22 06:11:00,33.0,32.0,-100.00,North,-999,0.0,0.0,95,-99.99,,,-99.99,,2013-06-22 13:11:00,
2013-06-22 08:02:00,46.0,38.0,-100.00,North,-999,0.0,0.0,74,-99.99,,,-99.99,,2013-06-22 15:02:00,
2013-06-22 08:22:00,48.0,38.0,-100.00,North,-999,0.0,0.0,69,-99.99,,,-99.99,,2013-06-22 15:22:00,
2013-06-22 08:43:00,49.0,38.0,-100.00,North,-999,0.0,0.0,67,-99.99,,,-99.99,,2013-06-22 15:43:00,
2013-06-22 09:02:00,51.0,38.0,-100.00,North,-999,0.0,0.0,61,-99.99,,,-99.99,,2013-06-22 16:02:00,
2013-06-22 09:12:00,51.0,38.0,-100.00,North,-999,0.0,0.0,61,-99.99,,,-99.99,,2013-06-22 16:12:00,
2013-06-22 09:22:00,51.0,37.0,-100.00,North,-999,0.0,0.0,57,-99.99,,,-99.99,,2013-06-22 16:22:00,
2013-06-22 09:34:00,51.0,37.0,-100.00,North,-999,0.0,0.0,57,-99.99,,,-99.99,,2013-06-22 16:34:00,
2013-06-22 09:43:00,53.0,37.0,-100.00,North,-999,0.0,0.0,55,-99.99,,,-99.99,,2013-06-22 16:43:00,
2013-06-22 10:01:00,58.0,36.0,-100.00,North,-999,0.0,0.0,45,-99.99,,,-99.99,,2013-06-22 17:01:00,
2013-06-22 10:11:00,58.0,36.0,-100.00,North,-999,0.0,0.0,45,-99.99,,,-99.99,,2013-06-22 17:11:00,
2013-06-22 10:22:00,59.0,36.0,-100.00,North,-999,0.0,0.0,42,-99.99,,,-99.99,,2013-06-22 17:22:00,
2013-06-22 10:34:00,59.0,36.0,-100.00,North,-999,0.0,0.0,42,-99.99,,,-99.99,,2013-06-22 17:34:00,
2013-06-22 10:43:00,60.0,35.0,-100.00,North,-999,0.0,0.0,39,-99.99,,,-99.99,,2013-06-22 17:43:00,
2013-06-22 10:52:00,61.0,35.0,-100.00,North,-999,0.0,0.0,38,-99.99,,,-99.99,,2013-06-22 17:52:00,
2013-06-22 11:01:00,62.0,36.0,-100.00,North,-999,0.0,0.0,37,-99.99,,,-99.99,,2013-06-22 18:01:00,
2013-06-22 11:11:00,62.0,36.0,-100.00,North,-999,0.0,0.0,37,-99.99,,,-99.99,,2013-06-22 18:11:00,
2013-06-22 11:22:00,63.0,35.0,-100.00,North,-999,0.0,0.0,36,-99.99,,,-99.99,,2013-06-22 18:22:00,
2013-06-22 11:43:00,63.0,36.0,-100.00,North,-999,0.0,0.0,36,-99.99,,,-99.99,,2013-06-22 18:43:00,
2013-06-22 11:52:00,65.0,36.0,-100.00,North,-999,0.0,0.0,35,-99.99,,,-99.99,,2013-06-22 18:52:00,
2013-06-22 12:11:00,66.0,36.0,-100.00,North,-999,0.0,0.0,33,-99.99,,,-99.99,,2013-06-22 19:11:00,
2013-06-22 12:33:00,67.0,36.0,-100.00,North,-999,0.0,0.0,32,-99.99,,,-99.99,,2013-06-22 19:33:00,
2013-06-22 12:42:00,66.0,35.0,-100.00,North,-999,0.0,0.0,32,-99.99,,,-99.99,,2013-06-22 19:42:00,
2013-06-22 12:53:00,66.0,35.0,-100.00,North,-999,0.0,0.0,32,-99.99,,,-99.99,,2013-06-22 19:53:00,
2013-06-22 13:02:00,66.0,35.0,-100.00,North,-999,0.0,0.0,32,-99.99,,,-99.99,,2013-06-22 20:02:00,
2013-06-22 13:11:00,68.0,36.0,-100.00,North,-999,0.0,0.0,31,-99.99,,,-99.99,,2013-06-22 20:11:00,
2013-06-22 13:22:00,69.0,35.0,-100.00,North,-999,0.0,0.0,29,-99.99,,,-99.99,,2013-06-22 20:22:00,
2013-06-22 13:42:00,69.0,35.0,-100.00,North,-999,0.0,0.0,28,-99.99,,,-99.99,,2013-06-22 20:42:00,
2013-06-22 13:53:00,69.0,34.0,-100.00,North,-999,0.0,0.0,28,-99.99,,,-99.99,,2013-06-22 20:53:00,
2013-06-22 14:01:00,69.0,34.0,-100.00,North,-999,0.0,0.0,28,-99.99,,,-99.99,,2013-06-22 21:01:00,
2013-06-22 14:11:00,69.0,34.0,-100.00,North,-999,0.0,0.0,28,-99.99,,,-99.99,,2013-06-22 21:11:00,
2013-06-22 14:22:00,70.0,34.0,-100.00,North,-999,0.0,0.0,26,-99.99,,,-99.99,,2013-06-22 21:22:00,
2013-06-22 14:43:00,70.0,34.0,-100.00,North,-999,0.0,0.0,26,-99.99,,,-99.99,,2013-06-22 21:43:00,
2013-06-22 14:53:00,73.0,35.0,-100.00,North,-999,0.0,0.0,25,-99.99,,,-99.99,,2013-06-22 21:53:00,
2013-06-22 15:12:00,74.0,35.0,-100.00,North,-999,0.0,0.0,24,-99.99,,,-99.99,,2013-06-22 22:12:00,
2013-06-22 15:23:00,74.0,35.0,-100.00,North,-999,0.0,0.0,24,-99.99,,,-99.99,,2013-06-22 22:23:00,
2013-06-22 15:33:00,73.0,33.0,-100.00,North,-999,0.0,0.0,23,-99.99,,,-99.99,,2013-06-22 22:33:00,
2013-06-22 15:43:00,73.0,32.0,-100.00,North,-999,0.0,0.0,22,-99.99,,,-99.99,,2013-06-22 22:43:00,
2013-06-22 15:52:00,74.0,34.0,-100.00,North,-999,0.0,0.0,23,-99.99,,,-99.99,,2013-06-22 22:52:00,
2013-06-22 16:11:00,73.0,33.0,-100.00,North,-999,0.0,0.0,23,-99.99,,,-99.99,,2013-06-22 23:11:00,
2013-06-22 16:22:00,73.0,33.0,-100.00,North,-999,0.0,0.0,23,-99.99,,,-99.99,,2013-06-22 23:22:00,
2013-06-22 16:33:00,74.0,34.0,-100.00,North,-999,0.0,0.0,23,-99.99,,,-99.99,,2013-06-22 23:33:00,
2013-06-22 16:43:00,75.0,35.0,-100.00,North,-999,0.0,0.0,23,-99.99,,,-99.99,,2013-06-22 23:43:00,
2013-06-22 16:52:00,74.0,34.0,-100.00,North,-999,0.0,0.0,23,-99.99,,,-99.99,,2013-06-22 23:52:00,
2013-06-22 17:01:00,72.0,33.0,-100.00,North,-999,0.0,0.0,24,-99.99,,,-99.99,,2013-06-23 00:01:00,
2013-06-22 17:11:00,72.0,33.0,-100.00,North,-999,0.0,0.0,24,-99.99,,,-99.99,,2013-06-23 00:11:00,
2013-06-22 17:22:00,71.0,34.0,-100.00,North,-999,0.0,0.0,26,-99.99,,,-99.99,,2013-06-23 00:22:00,
2013-06-22 17:33:00,71.0,34.0,-100.00,North,-999,0.0,0.0,26,-99.99,,,-99.99,,2013-06-23 00:33:00,
2013-06-22 17:42:00,71.0,34.0,-100.00,North,-999,0.0,0.0,26,-99.99,,,-99.99,,2013-06-23 00:42:00,
2013-06-22 17:53:00,74.0,36.0,-100.00,North,-999,0.0,0.0,25,-99.99,,,-99.99,,2013-06-23 00:53:00,
2013-06-22 18:11:00,73.0,35.0,-100.00,North,-999,0.0,0.0,25,-99.99,,,-99.99,,2013-06-23 01:11:00,
2013-06-22 18:21:00,73.0,35.0,-100.00,North,-999,0.0,0.0,25,-99.99,,,-99.99,,2013-06-23 01:21:00,
2013-06-22 18:32:00,72.0,34.0,-100.00,North,-999,0.0,0.0,25,-99.99,,,-99.99,,2013-06-23 01:32:00,
2013-06-22 18:42:00,72.0,34.0,-100.00,North,-999,0.0,0.0,25,-99.99,,,-99.99,,2013-06-23 01:42:00,
2013-06-22 18:52:00,70.0,34.0,-100.00,North,-999,0.0,0.0,26,-99.99,,,-99.99,,2013-06-23 01:52:00,
2013-06-22 19:01:00,69.0,33.0,-100.00,North,-999,0.0,0.0,27,-99.99,,,-99.99,,2013-06-23 02:01:00,
2013-06-22 19:11:00,69.0,33.0,-100.00,North,-999,0.0,0.0,27,-99.99,,,-99.99,,2013-06-23 02:11:00,
2013-06-22 19:21:00,68.0,33.0,-100.00,North,-999,0.0,0.0,27,-99.99,,,-99.99,,2013-06-23 02:21:00,
2013-06-22 19:31:00,67.0,33.0,-100.00,North,-999,0.0,0.0,28,-99.99,,,-99.99,,2013-06-23 02:31:00,
2013-06-22 19:41:00,67.0,33.0,-100.00,North,-999,0.0,0.0,28,-99.99,,,-99.99,,2013-06-23 02:41:00,
2013-06-22 19:52:00,67.0,33.0,-100.00,North,-999,0.0,0.0,28,-99.99,,,-99.99,,2013-06-23 02:52:00,
2013-06-22 20:01:00,67.0,33.0,-100.00,North,-999,0.0,0.0,29,-99.99,,,-99.99,,2013-06-23 03:01:00,
2013-06-22 20:11:00,67.0,33.0,-100.00,North,-999,0.0,0.0,29,-99.99,,,-99.99,,2013-06-23 03:11:00,
2013-06-22 20:21:00,65.0,34.0,-100.00,North,-999,0.0,0.0,31,-99.99,,,-99.99,,2013-06-23 03:21:00,
2013-06-22 20:31:00,64.0,34.0,-100.00,North,-999,0.0,0.0,33,-99.99,,,-99.99,,2013-06-23 03:31:00,
2013-06-22 20:41:00,64.0,34.0,-100.00,North,-999,0.0,0.0,33,-99.99,,,-99.99,,2013-06-23 03:41:00,
2013-06-22 20:51:00,63.0,35.0,-100.00,North,-999,0.0,0.0,35,-99.99,,,-99.99,,2013-06-23 03:51:00,
2013-06-22 21:01:00,62.0,36.0,-100.00,North,-999,0.0,0.0,37,-99.99,,,-99.99,,2013-06-23 04:01:00,
2013-06-22 21:11:00,62.0,36.0,-100.00,North,-999,0.0,0.0,37,-99.99,,,-99.99,,2013-06-23 04:11:00,
2013-06-22 21:21:00,61.0,36.0,-100.00,North,-999,0.0,0.0,40,-99.99,,,-99.99,,2013-06-23 04:21:00,
2013-06-22 21:42:00,59.0,37.0,-100.00,North,-999,0.0,0.0,43,-99.99,,,-99.99,,2013-06-23 04:42:00,
2013-06-22 21:52:00,59.0,37.0,-100.00,North,-999,0.0,0.0,45,-99.99,,,-99.99,,2013-06-23 04:52:00,
2013-06-22 22:01:00,58.0,38.0,-100.00,North,-999,0.0,0.0,47,-99.99,,,-99.99,,2013-06-23 05:01:00,
2013-06-22 22:10:00,58.0,38.0,-100.00,North,-999,0.0,0.0,47,-99.99,,,-99.99,,2013-06-23 05:10:00,
2013-06-22 22:22:00,58.0,38.0,-100.00,North,-999,0.0,0.0,47,-99.99,,,-99.99,,2013-06-23 05:22:00,
2013-06-22 22:41:00,57.0,38.0,-100.00,North,-999,0.0,0.0,50,-99.99,,,-99.99,,2013-06-23 05:41:00,
2013-06-22 22:51:00,56.0,39.0,-100.00,North,-999,0.0,0.0,51,-99.99,,,-99.99,,2013-06-23 05:51:00,
2013-06-22 23:11:00,56.0,39.0,-100.00,North,-999,0.0,0.0,52,-99.99,,,-99.99,,2013-06-23 06:11:00,
2013-06-22 23:22:00,56.0,39.0,-100.00,North,-999,0.0,0.0,53,-99.99,,,-99.99,,2013-06-23 06:22:00,
2013-06-22 23:43:00,56.0,40.0,-100.00,North,-999,0.0,0.0,54,-99.99,,,-99.99,,2013-06-23 06:43:00,
2013-06-22 23:52:00,56.0,40.0,-100.00,North,-999,0.0,0.0,55,-99.99,,,-99.99,,2013-06-23 06:52:00,